Weather in Tulsa

United States     36°07′17″N   95°56′24″W
temp.,
°C
wind,
m/s
gust,
m/s
humid.,
%
clouds,
%
prec.,
mm/h
press.,
hPa
HPBL,
m
18 september, sat
sat1801:00+22ene35560 0.0 101883
04:00+21ne11700 0.0 101815
07:00+20nne23703 0.0 101956
10:00+27ne34520 0.0 1019436
13:00+33ne46310 0.0 10171963
16:00+34ne46320 0.0 10142290
19:00+30ese47460 0.0 1014316
22:00+25e36610 0.0 1015139
19 september, sun
sun1901:00+23ese37760 0.0 1015145
04:00+21ese34860 0.0 101492
07:00+20se23910 0.0 101553
10:00+27sse22610 0.0 1015561
13:00+32se32430 0.0 10121681
16:00+34se44340 0.0 10092427
19:00+31ese58430 0.0 1008342
22:00+26sse513630 0.0 1009374
20 september, mon
mon2001:00+23sse413750 0.0 1009312
04:00+22sse4148251 0.0 1009336
07:00+22s5147780 0.0 1008393
10:00+28s712565 0.0 1009582
13:00+35ssw91130100 0.0 10071443
16:00+36s8102647 0.0 10051690
19:00+34sse7132864 0.0 1005601
22:00+30nw36374 0.1 1009164
21 september, tue
tue2101:00+23n712663 0.1 1013465
04:00+18n8168161 0.7 1016631
07:00+17nne716755 0.8 1019635
10:00+21n811491 0.0 1022803
13:00+26n811260 0.0 10231428
16:00+28nne810180 0.0 10212129
19:00+24nne610230 0.0 1022720
22:00+18ne39350 0.0 1024179
22 september, wed
wed2201:00+16ne23400 0.0 102562
04:00+14ne22470 0.0 102546
07:00+13ene11500 0.0 102617
10:00+21ese11320 0.0 1027379
13:00+27e33220 0.0 10251633
16:00+28ene33190 0.0 10222196
19:00+24ene35280 0.0 1021135
22:00+19ese34350 0.0 102248